Vertical_Velocity
-2 -2 -1 -1 -1 -1 -0 -0 0 1 1 2 2 1 1 0 0 1 1 1 1 1 3 5 6 6 6 3 1 0 1 2 2 1 0 -1 -1 -1 -0 1 1 1 2 2 3 4 3 3 2 2 2 1 1 2 2 2 1 1 1 2 2 1 1 1 1 0 -0 3 4 3 1 0 1 2 1 1 1 1 0 0 0 0 0 1 1 0 -0 -1 -1 -1 -1 -1 -1 -1 -1 -1 -1 -1 -1 -1 -1 -1 -0
0 -1 -2 -2 -2 -1 -1 -1 -1 -0 0 1 1 1 0 -0 -0 0 1 1 1 1 2 3 3 4 8 6 4 3 1 2 4 7 6 2 -0 -1 -1 0 1 1 1 2 3 4 4 3 3 2 2 1 1 1 2 2 1 1 1 1 1 1 1 2 1 -0 -1 3 5 4 0 1 1 1 1 1 1 1 0 -0 -0 -0 -0 0 0 0 -0 -0 -0 -0 -1 -1 -1 -1 -1 -1 -1 -1 -1 -2 -2 -2 -1
3 0 -1 -2 -2 -1 0 -1 -2 -2 -2 -2 -1 -0 -0 -1 -1 -0 0 1 1 1 1 3 2 2 3 6 6 3 -2 -2 4 10 11 8 4 -0 -1 -1 -0 0 1 1 2 3 4 3 3 3 2 1 1 1 1 1 1 2 1 1 1 1 2 2 1 0 -0 2 4 4 -0 1 0 -0 1 1 1 1 0 -0 -0 -1 -1 -1 -0 -0 -0 -0 -0 0 -0 -0 -1 -1 -1 -1 -1 -1 -2 -2 -2 -2 -2
3 4 5 0 -2 -2 -1 1 1 1 -1 -3 -3 -2 -2 -1 -1 -1 -0 -0 -1 -1 -0 3 4 5 6 9 8 5 -0 -0 1 4 5 6 3 -1 -3 -2 -1 -0 0 1 1 2 3 3 3 3 3 2 2 2 1 1 1 1 1 1 1 1 2 2 2 1 1 2 3 3 0 0 -0 -0 -0 0 1 1 0 -0 -0 -0 -0 -1 -1 -1 -0 0 0 0 0 -0 -0 -1 -1 -1 -1 -1 -1 -2 -2 -2 -3
1 5 10 5 1 -3 -3 0 5 9 10 5 1 -2 -3 -2 -1 -1 -0 -1 -1 -1 1 3 5 7 8 11 11 8 6 8 6 3 2 2 -1 -4 -5 -4 -2 -1 1 1 1 1 1 2 3 3 2 3 3 3 2 1 1 1 1 1 1 1 2 2 2 2 2 3 4 5 3 1 -0 -1 -1 -0 0 0 0 0 0 0 0 -0 -1 -1 -1 0 1 1 0 -0 -0 -0 -1 -1 -1 -1 -1 -1 -1 -2 -2
-0 1 3 4 3 -0 -3 -0 2 6 9 9 6 1 -1 -2 -2 -1 -0 -2 -1 3 8 4 3 4 7 8 8 7 5 5 2 0 3 4 1 -2 -5 -5 -3 -1 1 1 0 0 0 1 2 2 2 2 3 3 3 2 1 1 0 1 1 1 2 3 3 3 4 4 5 5 4 2 1 0 -1 -0 -0 -0 -0 0 1 1 1 0 -0 -1 -1 -1 0 1 0 -0 -0 -0 -0 -1 -1 -1 -1 -1 -1 -1 -1
-1 -2 -2 -1 1 2 3 -0 -1 -1 1 3 2 1 1 -1 -1 -1 -1 -3 -1 3 5 -0 -1 3 12 12 9 6 3 1 0 -0 -0 2 4 4 2 -0 -0 0 -1 -0 -1 -1 -0 1 1 1 1 1 2 3 3 3 2 1 1 0 1 1 2 2 3 4 5 4 4 2 1 4 6 5 0 0 -0 -1 -1 0 1 2 2 1 0 -0 -1 -1 -0 1 1 0 0 0 -0 -0 -1 -1 -1 -1 -1 -1 -1
-0 -1 -1 -1 -0 2 7 5 1 -2 -2 -1 -0 1 1 -0 -1 -1 -1 -2 -2 -1 -2 -5 -2 4 13 14 12 8 6 4 1 -0 -2 0 4 7 5 4 3 0 -3 -2 -2 -1 -0 1 1 1 1 1 1 2 3 3 3 2 1 1 0 0 1 2 3 4 6 6 5 3 -0 3 6 6 2 1 -0 -1 -1 0 1 2 2 2 1 0 -0 -1 -0 0 1 1 1 1 1 -0 -1 -1 -1 -1 -1 -1 -1
1 2 3 1 -0 0 3 7 6 3 0 0 1 1 0 -0 -1 -1 -2 -2 -2 -2 -3 -4 -2 3 8 10 9 8 5 6 5 3 1 -1 2 5 3 1 -0 -2 -4 -3 -2 -1 0 1 1 1 1 1 1 1 2 3 3 3 2 1 1 0 0 1 2 4 5 8 11 11 3 2 3 4 2 1 0 -0 -0 0 1 1 2 2 2 1 0 -0 -0 0 1 1 1 1 1 0 -0 -1 -1 -1 -1 -1 -1
1 3 7 2 1 1 0 3 6 6 1 2 2 2 1 0 -1 -1 -1 0 0 -0 -0 -2 -1 1 6 5 4 4 4 8 10 9 4 -1 -1 0 -1 -2 -2 -2 -2 -1 -0 0 1 1 1 2 2 2 1 1 1 2 3 3 3 2 1 1 0 0 1 3 4 9 12 12 5 2 1 1 1 1 0 -0 0 1 1 1 1 2 2 2 1 1 0 -0 1 1 1 1 1 1 0 -0 -1 -1 -1 -1 -1
-1 0 2 0 -0 -0 -0 1 2 3 2 2 2 3 3 2 -0 -1 1 4 3 0 -0 -0 -1 -0 2 3 1 -1 1 8 9 7 2 -1 -1 -1 -0 -1 -1 -0 3 3 3 2 1 1 1 1 2 2 2 1 1 1 2 3 3 3 2 1 1 0 1 2 3 6 9 8 2 -1 -1 -0 -0 -0 -0 -0 0 1 1 1 1 1 2 2 1 1 1 0 0 1 1 1 1 1 1 1 -0 -0 -0 -0 -1
-2 -2 -2 -2 -2 -1 -1 -0 0 1 2 2 2 2 2 2 1 -0 -0 1 1 -0 -0 -0 -0 -1 -0 0 -1 -3 -1 4 6 4 -0 -1 -0 1 2 1 1 1 4 5 4 3 2 2 1 1 2 2 2 2 1 1 1 2 2 3 2 2 1 1 1 2 3 5 6 6 1 0 0 0 -1 -1 -1 -0 0 1 1 1 1 1 1 1 1 1 1 1 1 1 1 1 1 1 1 1 1 -0 -0 -0 -0
-2 -2 -2 -1 -1 -1 -1 -0 -0 0 1 1 1 1 1 1 1 0 -1 -1 -1 -1 -0 0 0 -0 -0 -0 -1 -3 -3 0 3 4 1 -0 -0 1 2 3 2 2 2 4 4 4 3 2 2 2 2 2 2 2 2 1 1 1 1 2 2 2 1 1 1 1 3 6 7 6 5 5 6 7 4 0 -1 -0 0 0 0 0 1 1 1 1 1 1 1 1 1 1 1 1 0 0 0 1 1 0 -0 -0 -0
-3 -2 -2 -1 -0 -0 0 -0 -0 -0 0 1 1 1 1 1 0 0 -0 -0 -0 -0 0 1 1 1 1 0 -0 -1 -2 -1 0 1 1 -1 -2 -1 -0 1 1 2 1 1 2 2 2 2 2 2 2 1 2 2 2 1 1 0 1 2 2 2 1 1 1 1 2 6 7 6 3 4 7 9 9 4 1 -1 0 0 -0 -0 0 0 0 0 1 1 1 1 1 1 0 0 -0 -0 -0 -0 0 0 -0 -0 -0
-3 -3 -2 -2 -1 -0 -0 -0 -0 -0 0 0 0 1 1 1 1 1 1 0 1 1 1 1 2 2 1 1 1 0 -0 -1 -1 -1 -1 -2 -3 -3 -3 -2 -0 1 1 -0 -0 0 1 1 1 1 1 1 1 2 3 2 1 0 1 1 2 2 1 0 0 0 1 5 7 6 1 2 5 8 10 7 3 -0 1 0 -0 -0 -0 0 0 0 0 0 1 1 1 0 -0 -0 -1 -1 -1 -1 -0 -0 -0 -0 -0
-2 -2 -3 -3 -3 -3 -2 -2 -1 -0 0 -0 -0 -0 1 1 2 2 2 1 2 2 2 2 2 2 1 1 2 2 1 1 -0 -1 -1 -2 -2 -3 -3 -3 -2 -1 -0 -0 -1 -1 -0 0 1 1 0 0 1 1 2 2 2 1 2 2 2 2 2 1 -0 -0 1 4 6 6 4 2 3 6 7 7 4 1 2 1 0 -0 -0 -0 0 0 0 0 0 1 0 -0 -0 -1 -1 -1 -1 -1 -1 -0 -0 -0 -0
-1 -0 -2 -3 -4 -4 -4 -3 -2 -1 -1 -1 -0 -0 0 1 1 2 2 2 3 3 2 2 2 2 1 1 1 2 2 1 1 -0 -0 -1 -1 -2 -2 -3 -2 -2 -1 -1 -1 -2 -1 -1 -0 -0 -0 -0 0 1 1 2 2 3 3 3 3 3 2 1 0 -0 -0 2 5 7 7 3 3 4 7 6 3 1 2 2 1 -0 -1 -0 0 0 0 0 0 0 -0 -0 -1 -1 -1 -1 -1 -1 -1 -1 -0 -0 -0
0 0 -0 -1 -2 -3 -2 -2 -1 -0 -0 -0 -0 -0 0 1 1 1 2 2 2 2 2 2 2 2 1 1 1 1 1 1 1 1 0 0 0 -0 -1 -2 -2 -2 -2 -2 -2 -2 -2 -1 -1 -0 -0 -0 -0 0 1 1 2 3 4 3 3 3 2 2 1 -0 -1 2 6 10 8 4 3 4 9 7 3 1 1 2 1 -0 -1 -0 0 0 0 -0 -0 -0 -0 -0 -1 -1 -1 -1 -1 -1 -1 -1 -0 -0 -0
1 0 0 1 1 0 -0 -1 -1 1 2 2 1 1 1 2 3 3 2 2 2 2 3 3 2 1 1 1 0 0 0 1 1 1 1 1 1 0 -0 -1 -1 -2 -2 -2 -2 -2 -2 -2 -2 -1 -1 -1 -0 0 1 1 1 3 4 3 3 3 3 2 1 -0 -1 1 7 12 8 4 3 5 11 9 5 1 2 2 1 -1 -1 -1 -0 0 0 -0 -1 -1 -1 -1 -1 -1 -1 -1 -1 -1 -1 -1 -1 -0 -0
-0 -1 -1 1 1 2 2 -0 -1 1 4 4 2 1 1 2 4 4 3 1 2 4 5 3 2 1 1 1 1 1 1 1 1 1 1 1 1 1 0 -0 -1 -1 -1 -2 -2 -2 -3 -2 -2 -2 -2 -1 -0 0 1 0 1 2 3 3 3 3 2 2 1 0 -0 1 7 11 9 5 4 5 10 7 5 4 3 2 1 -0 -1 -1 -0 -0 0 -0 -1 -1 -1 -1 -1 -1 -1 -1 -1 -1 -1 -1 -1 -0 -0
-1 -2 -3 -1 1 3 5 6 4 2 2 2 1 -1 -1 -1 1 2 3 3 4 4 3 1 0 -0 0 1 1 1 1 1 1 1 0 0 0 0 1 0 -0 -0 -1 -1 -1 -2 -2 -3 -3 -3 -3 -2 -1 -0 -0 -0 0 1 2 3 3 3 2 2 1 -0 -1 3 8 12 10 6 4 5 7 5 4 4 3 3 2 0 -0 -0 -0 -0 0 -0 -1 -2 -2 -1 -1 -1 -1 -1 -1 -1 -0 -1 -1 -0 -0
3 -0 -1 -0 1 1 3 10 9 4 -1 -1 -1 -1 -3 -3 -2 1 7 11 8 3 -0 -0 -0 0 1 1 1 1 1 1 1 1 0 -0 -0 -0 0 0 0 -0 -1 -1 -1 -1 -2 -2 -3 -3 -3 -3 -2 -1 -1 -0 0 1 1 2 2 2 2 2 1 -0 -2 1 9 15 14 7 4 5 8 7 5 4 5 4 3 1 1 -0 -0 -0 -0 -0 -1 -2 -2 -2 -2 -1 -1 -1 -1 -0 -0 -0 -1 -0 -0
6 3 2 1 0 -0 -0 5 5 2 -3 -1 0 0 -1 -2 -1 2 10 11 6 0 -0 2 4 4 3 1 0 -0 -1 0 1 1 1 -0 -1 -1 -0 -0 0 -0 -0 -0 -0 -1 -1 -1 -2 -3 -3 -3 -3 -2 -2 -1 -0 1 1 1 2 2 2 1 1 -0 -3 -2 6 15 18 10 5 6 11 10 6 5 9 6 4 1 1 0 -0 -0 -0 -0 -1 -1 -2 -2 -2 -1 -1 -1 -1 -0 -0 -0 -0 -0 -0
1 -1 -1 -1 -1 -1 -1 -1 -1 -2 -3 -2 -2 -3 -4 -5 -4 -2 2 -3 -5 -4 4 9 8 6 4 2 -0 -2 -2 -1 -0 1 1 -0 -1 -2 -1 -1 -0 -0 -0 -0 -0 -0 -0 -0 -1 -1 -2 -2 -2 -2 -2 -1 -0 0 1 1 1 1 1 1 1 -0 -2 -4 2 11 18 13 8 6 11 11 7 4 10 8 4 1 1 1 0 0 0 0 -0 -1 -2 -2 -1 -1 -1 -1 -1 -0 0 0 0 -0 -0
2 3 -0 -1 -1 -1 -1 -0 -0 -1 -2 -2 -4 -6 -9 -12 -11 -8 -7 -10 -9 -6 2 5 4 2 2 1 -1 -2 -2 -2 -2 -1 -0 -1 -2 -3 -2 -1 -1 -1 -0 -0 -0 -0 -0 -0 -0 -0 -0 -1 -1 -1 -2 -1 -1 -0 0 1 1 1 1 1 1 -0 -2 -4 -2 3 12 15 12 7 7 10 7 5 8 9 5 1 1 1 0 1 1 1 0 -1 -1 -1 -1 -1 -1 -1 -0 -0 0 1 0 0 -0
6 8 4 1 1 0 -1 -0 -0 -1 -1 -2 -3 -4 -5 -8 -13 -16 -17 -7 -3 -2 -1 -0 -1 -2 -0 0 -0 -0 1 1 1 -0 -2 -3 -3 -2 -0 -0 -1 -1 -1 -0 -0 -0 -0 -0 -0 -0 -0 0 -0 -1 -1 -1 -1 -0 0 0 1 1 1 0 0 -0 -1 -3 -4 -2 6 14 16 13 6 6 7 8 8 10 8 4 0 -0 -0 0 1 1 0 -1 -1 -1 -1 -1 -1 -0 -0 0 1 1 1 1 0
4 6 3 3 2 1 -0 -1 -2 -2 -1 -3 -3 -3 -2 -8 -18 -26 -24 -9 -4 -2 2 4 3 2 2 1 -0 -1 1 5 8 7 2 -3 -4 -1 3 4 1 -1 -2 -1 -0 -0 -0 -0 -0 0 0 0 -0 -1 -1 -1 -1 -1 0 1 1 1 1 0 -0 -1 -1 -2 -4 -4 2 11 16 17 11 6 7 10 10 12 11 8 1 -1 -1 -1 -1 -0 -1 -1 -2 -2 -1 -1 -0 -0 -0 0 1 1 1 1 1
-0 0 -0 2 2 2 1 -1 -2 -3 -3 -4 -5 -5 -4 -10 -19 -25 -22 -13 -8 -5 1 2 3 4 4 0 -3 -4 -3 1 2 2 -1 -5 -5 -1 6 6 2 -3 -3 -2 -1 -0 -1 -1 -0 -0 0 0 -0 -1 -2 -2 -1 -1 -0 0 1 1 1 1 0 -0 -1 -2 -4 -5 -4 5 13 17 15 9 7 8 11 12 12 9 2 -0 -1 -2 -2 -2 -2 -2 -3 -3 -2 -1 -1 -0 -0 0 1 1 1 1 1
-1 -1 -1 -0 0 1 1 -0 -1 -2 -5 -6 -7 -8 -9 -8 -10 -12 -11 -11 -7 -1 8 6 1 -3 -4 -4 -5 -5 -6 -6 -6 -6 -4 0 2 3 3 1 -2 -4 -4 -4 -2 -1 -1 -1 -1 -1 -0 -0 -0 -1 -2 -2 -2 -1 -0 0 1 1 1 1 1 0 -1 -2 -3 -5 -8 -1 7 14 17 14 10 6 6 9 10 9 6 2 -0 -2 -2 -3 -3 -3 -3 -3 -2 -2 -1 -1 -0 0 0 1 1 1 0
0 -0 0 -2 -2 -1 1 1 1 0 -3 -4 -6 -8 -9 -6 -5 -5 -7 -8 -0 11 20 6 -2 -6 -5 -4 -4 -5 -6 -7 -8 -7 -4 5 6 3 -2 -4 -5 -4 -4 -4 -3 -3 -2 -2 -2 -1 -1 -0 -0 -1 -1 -2 -2 -1 -1 -0 0 1 1 1 1 1 0 -1 -2 -4 -6 -5 0 8 15 16 13 9 4 4 6 8 10 6 2 -1 -1 -2 -3 -2 -2 -2 -2 -2 -2 -1 -0 -0 0 0 0 0 0
-1 -1 1 -1 -1 -1 -0 1 2 2 0 -0 -2 -5 -8 -6 -5 -5 -8 -7 0 7 9 5 4 3 1 -1 -2 -2 -3 -3 -4 -5 -4 -0 -0 -2 -5 -4 -2 -1 -0 -2 -3 -4 -4 -4 -3 -2 -1 -1 -0 -0 -1 -2 -2 -2 -1 -0 -0 1 1 2 2 2 1 -0 -1 -3 -4 -5 -4 -0 8 14 15 13 8 7 7 9 13 11 8 6 4 1 -1 -2 -1 -1 -1 -2 -2 -1 -1 -0 -0 -0 -0 -0 -0
-1 -1 -0 0 0 0 -1 1 2 3 3 4 3 1 -3 -3 -4 -4 -6 -5 -4 -5 -6 -1 6 11 7 2 0 -0 -0 0 -1 -2 -3 -3 -3 -3 -3 -2 3 7 9 3 -1 -4 -4 -4 -4 -4 -2 -1 -0 -0 -1 -2 -2 -2 -2 -1 -0 0 1 2 2 2 2 1 -0 -1 -2 -4 -5 -5 0 9 14 16 14 12 9 9 12 13 13 12 10 8 7 4 1 0 -0 -0 -1 -1 -1 -1 -1 -0 -0 -0 -0
-1 -1 -1 -0 1 1 -0 1 2 3 4 6 6 4 2 2 1 -1 -3 -3 -4 -5 -6 -4 -0 4 5 3 1 -0 0 -0 -0 -1 -3 -2 -2 -1 0 0 2 5 11 8 2 -4 -4 -5 -5 -5 -4 -2 -1 -1 -1 -1 -2 -2 -2 -2 -1 -0 0 1 2 2 2 1 1 -0 -1 -2 -4 -6 -6 2 10 15 17 13 9 8 11 12 12 12 10 8 8 7 3 1 1 1 -0 -1 -1 -1 -1 -1 -1 -1 -1
-2 -1 -1 -1 -1 -1 1 2 2 1 2 4 4 4 4 4 4 2 1 -1 -2 -2 -2 -2 -1 -0 1 1 -0 -1 -1 -1 -1 -2 -3 -3 -2 -0 1 2 1 0 3 3 0 -3 -3 -4 -6 -6 -5 -4 -3 -2 -1 -1 -2 -2 -3 -2 -2 -1 -0 1 1 2 2 2 1 0 -1 -2 -3 -5 -7 -4 5 13 16 10 6 4 4 6 9 11 11 10 10 8 3 2 1 2 1 0 -0 -1 -1 -1 -1 -1 -1
-2 -2 -1 -1 -1 -1 1 2 1 0 1 0 0 1 1 1 2 2 2 1 0 -0 -0 -0 -0 -0 -0 -0 -1 -2 -2 -1 -1 -1 -3 -3 -2 -1 1 1 0 -0 0 -1 -1 -1 -1 -3 -5 -6 -5 -4 -4 -3 -2 -2 -2 -2 -2 -2 -2 -1 -1 -0 0 1 1 1 1 0 -0 -1 -2 -4 -7 -6 1 10 14 8 4 -0 -2 -2 2 6 8 9 10 8 5 4 3 3 3 2 1 -0 -0 -0 -0 -1 -1
-1 -1 -1 -1 -0 0 1 1 0 -0 -0 -0 -1 -1 -2 -2 -1 -1 0 -0 -0 0 -0 -0 0 -0 -1 -1 -1 -2 -2 -1 -0 -0 -1 -1 -2 -1 -0 -1 -1 -0 0 -1 -1 0 1 -1 -3 -4 -4 -4 -3 -2 -2 -2 -2 -2 -2 -2 -2 -2 -1 -1 -0 -0 1 1 1 1 0 -0 -1 -3 -5 -6 -1 6 12 9 5 1 -1 -1 0 2 1 5 7 7 6 6 5 3 3 3 2 1 0 0 -0 -1 -1
-1 -1 -1 -0 -0 0 0 0 -0 -0 -1 -0 0 1 1 -1 -2 -3 -2 -3 -3 -2 -3 -1 0 0 -1 -1 -2 -2 -2 0 1 1 -1 -1 -2 -2 -2 -2 -1 0 0 -1 -1 0 1 -0 -1 -1 -1 -2 -2 -2 -2 -2 -1 -1 -2 -2 -2 -2 -2 -2 -1 -1 0 1 1 1 1 -0 -1 -2 -3 -3 -1 3 9 9 6 2 1 5 5 3 0 2 4 6 7 8 6 5 4 4 3 1 1 1 0 -0 -1
-0 -1 -0 -0 0 0 1 -1 -1 -1 -0 0 1 3 3 1 -1 -2 -3 -4 -4 -4 -5 -2 -2 -2 0 -1 -2 -3 -2 1 1 0 -2 -2 -1 -2 -2 -1 1 2 0 -2 -2 -1 -1 -2 -2 -1 -1 -1 -2 -2 -2 -2 -1 -1 -1 -2 -2 -2 -2 -2 -1 -1 -0 0 1 1 1 0 -0 -1 -1 -1 -1 1 6 9 7 4 3 8 8 4 1 1 2 4 7 8 8 8 7 4 3 2 1 1 0 0 -0
-0 -0 -1 -0 1 1 1 -1 -2 -1 -1 1 2 3 4 3 1 0 -0 -2 -4 -5 -2 -2 -4 -4 -1 -2 -2 -2 -1 1 1 -1 -3 -2 -1 -1 -3 -0 2 3 0 -2 -3 -3 -3 -3 -2 -2 -2 -1 -1 -1 -2 -2 -2 -2 -1 -1 -2 -2 -2 -2 -1 -1 -1 -0 0 1 1 1 -0 -1 -1 -0 -0 1 3 6 6 4 3 5 5 4 1 1 1 2 5 5 6 7 8 4 3 2 1 1 0 0 -0
-1 -0 -1 -1 0 1 -1 -1 -1 -1 -2 0 1 1 3 4 3 2 2 1 -1 -3 -0 -1 -2 -3 -3 -3 -3 -2 -2 0 1 -1 -3 -1 -1 -2 -2 1 2 2 1 0 -1 -2 -1 1 1 -1 -3 -2 -1 -1 -1 -2 -2 -2 -1 -2 -2 -2 -2 -1 -1 -1 -1 -1 -0 1 2 1 1 -0 -0 -0 1 1 2 4 4 3 1 2 4 4 3 2 4 5 6 3 4 5 6 4 3 2 1 0 -0 -0 -0
-2 -1 -0 -0 -1 -1 -1 1 -0 -2 -1 -1 -1 -0 2 5 5 4 3 3 1 -0 -1 0 1 0 -4 -4 -3 -2 -4 -1 0 0 -2 -1 -1 -1 -1 1 2 1 2 2 1 -1 -1 3 4 1 -4 -3 -1 0 -0 -2 -3 -3 -3 -3 -3 -2 -2 -1 -0 -0 -1 -1 -0 1 2 2 1 1 -0 0 1 2 3 3 2 1 1 1 2 4 3 5 7 9 6 3 3 5 5 5 3 2 1 0 -0 -0 -0
-3 -2 -1 -1 -1 -2 0 0 -1 -2 -1 -2 -2 -1 1 4 4 3 4 4 3 1 -0 2 3 2 -2 -4 -3 -3 -5 -3 -1 -0 -1 -1 -1 -1 -0 1 1 1 2 3 1 -1 -3 -1 0 -1 -4 -2 1 2 -2 -3 -3 -3 -3 -3 -3 -3 -2 -1 -1 -0 -0 -0 0 1 2 3 2 1 1 1 1 2 4 4 3 2 1 1 1 2 3 8 10 8 4 4 5 6 6 5 3 2 1 0 0 0 -0
-3 -3 -2 -2 -2 -2 -0 -1 -1 -2 -1 -3 -3 -2 1 2 2 3 5 4 3 1 1 2 3 3 1 -0 -2 -3 -4 -4 -3 -2 -0 -1 -2 -2 -0 1 0 0 1 2 1 -1 -4 -5 -6 -6 -2 6 7 3 -4 -2 -2 -2 -3 -3 -3 -2 -1 -1 -1 -0 0 0 1 2 3 3 3 2 2 1 1 2 4 5 4 3 2 2 1 1 1 7 10 9 6 6 7 7 7 5 3 1 1 0 0 0 1
-3 -3 -2 -2 -3 -3 -1 -1 -2 -2 -2 -3 -3 -2 0 -1 1 3 5 4 3 3 -0 1 3 5 4 2 -0 -2 -2 -4 -4 -4 -1 -1 -2 -3 -1 -0 -0 -0 0 1 1 -1 -3 -5 -8 -8 -2 11 12 6 -1 -0 -0 -1 -2 -2 -2 -2 -1 -1 -1 -0 0 0 1 2 2 3 3 3 3 2 2 2 3 4 5 4 2 1 1 0 -1 1 4 6 8 8 8 8 9 7 5 3 2 1 0 0 1
-3 -3 -1 -2 -2 -2 -1 -2 -2 -2 -2 -3 -4 -3 -1 -2 -0 2 3 3 4 4 0 -1 1 4 5 4 2 0 -0 -2 -4 -4 -2 -2 -3 -4 -3 -3 -2 -1 0 0 -1 -2 -1 -3 -5 -6 -5 4 7 5 1 1 1 0 -0 -1 -2 -2 -2 -1 -0 0 1 1 1 1 1 3 3 4 4 3 2 2 2 3 4 4 3 2 1 -0 -1 -2 -1 1 5 8 8 8 10 8 6 5 4 2 1 1 1
-4 -4 -2 -3 -2 -2 -1 -2 -2 -2 -3 -4 -4 -3 -2 -2 -1 0 2 2 4 4 2 -1 -1 1 3 3 3 3 1 -1 -2 -1 -1 -2 -3 -3 -3 -5 -4 -2 0 -1 -2 -2 -1 -2 -1 -1 -3 -1 1 1 1 1 1 1 2 1 -1 -2 -2 -2 -1 1 1 1 0 0 1 2 3 4 4 3 2 1 1 2 3 4 3 3 2 1 -1 -2 -2 -1 3 6 6 7 11 11 10 8 5 3 2 2 4
-3 -4 -3 -4 -4 -3 -2 -2 -1 -2 -3 -4 -3 -2 -2 -3 -2 -0 2 1 2 3 3 0 -1 -2 -2 0 3 4 2 1 1 1 -0 -3 -3 -2 -2 -6 -6 -4 -1 -3 -3 -3 -2 1 2 1 -1 0 1 0 0 0 1 2 3 1 -1 -1 -2 -3 -2 -0 1 1 1 1 1 2 3 3 3 2 1 0 1 1 2 3 3 3 2 1 0 -0 -1 -0 1 1 1 4 10 14 14 12 9 5 4 5 7
-2 -3 -2 -4 -4 -3 -2 -1 -1 -2 -2 -3 -3 -2 -2 -3 -1 1 2 1 2 2 -0 1 0 -1 -5 -3 -0 1 2 2 2 2 1 -2 -2 -2 -3 -5 -5 -4 -3 -2 -2 -3 -3 1 1 -1 -2 0 1 0 1 0 1 2 1 -1 -0 0 -3 -4 -4 -3 -2 -1 0 1 1 2 2 2 1 1 0 0 1 1 2 2 2 2 2 2 1 1 0 -0 -1 -3 -3 -0 6 13 15 15 13 10 8 8 8
-1 -1 -1 -3 -3 -2 -2 -2 -2 -1 -0 -2 -2 -3 -4 -3 -0 2 1 2 3 1 -3 0 1 -0 -4 -4 -5 -3 0 3 2 1 3 5 1 -4 -7 -3 -3 -4 -5 -1 -1 -2 -3 -1 -2 -4 -4 -1 -1 -1 0 1 1 1 -2 -0 1 0 -3 -3 -4 -6 -6 -2 -1 -0 0 1 1 -0 -1 -1 0 1 2 2 2 2 1 1 1 1 2 2 1 0 -2 -3 -4 -2 1 8 12 14 15 14 12 10 6
-0 -0 -1 -2 -1 -1 -2 -3 -2 -1 0 -1 -2 -3 -5 -1 1 2 0 3 4 2 -0 -0 -0 -0 1 -3 -7 -8 -3 1 1 2 9 9 4 -3 -6 -3 -4 -5 -4 -1 1 2 -0 -2 -4 -5 -5 -3 -2 -1 0 1 1 -0 -2 0 0 -1 -2 -1 -3 -4 -4 -3 -2 -2 -1 0 -0 -1 -3 -1 0 2 2 3 4 3 1 1 0 0 1 3 3 1 -0 -1 -2 -2 -1 2 6 10 12 13 13 11 6
-0 -0 -1 -2 -1 -1 -1 -3 -2 -0 -1 -2 -3 -2 -2 0 1 1 1 3 3 3 4 2 -2 -3 3 1 -6 -11 -6 -3 0 6 20 6 -1 -2 3 -3 -5 -3 -1 -3 1 3 0 -1 -4 -6 -6 -4 -2 -0 1 0 -0 -1 -2 -0 -1 -2 -2 -1 -2 -2 -2 -2 -2 -2 -0 -0 -1 -2 -3 -1 0 1 1 2 3 2 1 -0 -2 -3 -1 3 4 4 2 0 -0 -1 -1 -1 0 3 7 9 11 10 6
-1 -1 -1 -2 -1 -1 -4 -3 -1 -0 -3 -3 -3 -2 -2 -0 0 0 0 2 2 2 6 5 -0 -4 -1 1 -5 -11 -8 -5 1 9 21 3 -4 -2 6 2 5 7 -1 -3 -2 -0 -1 0 -3 -7 -3 -4 -2 -0 -0 -1 -1 -1 -3 -2 -1 -2 -3 -2 -2 -2 -3 -4 -2 0 2 -1 -4 -5 -5 -3 -2 -2 -1 -1 -1 -1 -2 -3 -4 -4 -3 1 3 4 3 2 1 1 -0 -1 -1 1 6 10 12 10 7
-2 -2 -2 -1 -2 -3 -6 -2 -0 -1 -4 -1 -2 -4 -6 -2 -0 -0 -1 1 1 2 4 6 4 -0 -3 -1 -4 -7 -9 -6 -1 4 7 5 4 5 6 12 14 7 -12 1 1 -3 -4 -0 -4 -6 -1 -3 -2 -1 -2 -1 -1 -2 -4 -1 -1 -3 -4 -3 -2 -2 -3 -6 -4 -1 1 -2 -5 -5 -1 -1 -2 -4 -4 -3 -4 -5 -5 -2 -0 0 -0 0 1 2 2 2 2 2 1 0 -0 1 6 11 13 11 8
-2 -1 -1 0 -2 -4 -4 -1 -2 -4 -3 -0 -1 -4 -7 -4 -2 -1 -3 0 1 1 2 4 4 4 3 -0 -1 -4 -10 -8 -4 -1 -1 4 12 18 17 12 2 -9 -18 4 8 1 -7 -6 -3 -2 -5 -4 -2 -0 -3 1 -1 -3 -3 -1 -3 -4 -3 -2 -1 -0 0 -4 -6 -4 -1 -5 -4 0 8 8 4 0 -3 -3 -4 -5 -6 -1 3 6 7 4 1 -0 -1 -0 1 2 2 2 1 2 3 6 8 9 10
-1 -1 0 1 0 -1 -0 -2 -3 -4 -3 -2 -2 -2 -4 -3 -3 -3 -3 -0 -0 -0 1 1 3 6 11 4 -0 -4 -7 -9 -6 -2 -1 -1 9 19 21 4 -4 -6 -4 8 11 3 -14 -10 -2 2 -6 -5 -0 3 -1 0 -1 -2 -1 -1 -3 -4 -2 -2 -1 0 -0 -3 -3 -1 0 -4 -2 2 8 6 4 2 1 -1 -2 -3 -4 -4 0 6 12 10 6 0 -3 -2 -0 1 2 3 3 3 2 1 1 4 9
0 -0 1 2 2 1 -0 -2 -2 -2 -4 -3 -1 0 -1 -3 -4 -4 -2 -1 -1 0 3 2 2 5 10 7 3 -1 -3 -6 -7 -5 -1 -2 3 10 14 9 10 12 11 10 1 -10 -18 -9 1 5 -3 -8 -1 6 -0 -3 -2 -0 -1 -2 -3 -2 -3 -3 -2 -2 -3 -4 -0 3 3 -0 0 1 1 -0 -1 -0 -0 -0 -1 -2 -3 -3 -0 4 8 9 7 2 -3 -3 -1 1 2 3 4 4 3 1 0 1 4
1 1 2 2 2 1 -0 -1 -0 -1 -3 -2 -0 0 -1 -3 -3 -2 -0 -1 0 2 3 2 2 2 3 6 6 3 0 -3 -7 -9 -3 -2 -2 1 11 16 12 3 -2 -3 -10 -16 -11 -9 6 13 -7 -16 -2 10 -5 -6 -2 1 -3 -2 -2 -3 -4 -4 -4 -3 -4 -3 -0 1 -0 1 1 -1 -5 -4 -2 -1 -1 0 -0 -2 -4 -2 -1 1 2 7 6 2 -3 -3 -1 1 2 3 4 4 4 3 3 3 2
2 3 3 1 1 2 3 1 0 -1 -2 -1 -1 -1 -1 -1 0 1 -1 -1 -0 0 -1 2 4 3 -0 2 4 6 6 3 -4 -9 -6 -3 -2 -0 5 10 4 -2 -1 -7 -11 -11 -5 -2 11 12 -20 -12 0 4 -11 -1 1 -0 -2 -1 -2 -3 -3 -3 -3 -4 -4 -3 -2 -3 -3 0 0 -2 -6 -5 -4 -3 -1 1 0 -1 -3 -4 -5 -4 0 6 5 1 -2 -2 -1 1 3 4 4 4 4 4 4 4 2
2 2 2 2 2 4 4 2 1 1 1 -2 -2 -0 1 2 2 1 -3 -2 -2 -3 -3 4 5 3 -3 -1 4 9 11 5 -2 -6 -5 -1 -0 -1 -3 -1 2 7 14 4 -1 -3 -3 6 5 -5 -19 7 6 -7 -12 4 3 -3 -2 -1 -2 -3 -1 -2 -3 -4 -4 -3 -4 -4 -3 -2 -2 -2 -2 -4 -5 -5 -3 -1 -1 -1 -1 -5 -8 -8 -2 3 3 0 -2 -1 0 2 3 4 4 4 4 4 3 3 1
1 1 2 2 3 4 4 3 3 3 2 -1 -0 1 3 2 -0 -2 -2 -0 -1 -2 1 4 2 -1 -3 1 6 9 9 1 -2 -2 2 6 -0 -8 -10 0 6 8 8 5 3 1 -1 1 -7 -12 1 14 2 -12 -3 1 -4 -8 -1 -2 -2 -2 -1 -2 -4 -4 -3 -4 -4 -3 -1 -3 -4 -3 -1 -4 -4 -4 -3 -4 -3 -2 -0 -2 -5 -7 -5 -2 -0 0 -0 0 1 2 3 4 3 2 2 2 2 2 1
1 1 2 2 2 3 4 4 5 5 2 1 2 3 3 0 -2 -2 1 2 -1 -2 2 2 -0 -2 1 3 5 6 4 -1 -2 1 7 10 -1 -13 -13 3 6 2 -0 5 6 5 3 -5 -9 -5 11 4 -4 -5 7 -5 -10 -8 3 -2 -4 -4 0 -3 -4 -5 -3 -4 -3 -2 -1 -2 -2 -3 -4 -4 -2 -0 -1 -3 -4 -4 -2 -1 -1 -3 -5 -5 -4 -2 -1 0 1 1 2 2 2 1 1 0 1 1 2
Height
1531 1531 1532 1532 1532 1532 1532 1532 1532 1533 1533 1533 1533 1533 1533 1533 1534 1534 1534 1534 1534 1534 1534 1534 1535 1535 1535 1536 1536 1536 1536 1536 1536 1537 1537 1537 1538 1538 1538 1538 1538 1538 1538 1538 1538 1538 1538 1538 1538 1539 1539 1539 1539 1539 1540 1540 1540 1540 1540 1541 1541 1541 1541 1541 1541 1541 1542 1542 1542 1542 1542 1543 1543 1543 1543 1543 1543 1544 1544 1545 1545 1546 1546 1546 1546 1546 1546 1546 1546 1546 1547 1547 1547 1547 1548 1548 1548 1549 1549 1549 1550 1550 1550
1531 1531 1531 1531 1532 1532 1532 1532 1532 1532 1532 1532 1532 1532 1532 1533 1533 1533 1533 1533 1533 1533 1533 1533 1534 1534 1534 1535 1535 1535 1535 1536 1536 1536 1536 1537 1537 1537 1537 1538 1538 1538 1538 1538 1538 1538 1538 1538 1538 1538 1538 1538 1539 1539 1539 1539 1539 1540 1540 1540 1540 1541 1541 1541 1541 1541 1541 1541 1541 1541 1541 1542 1542 1542 1542 1542 1543 1543 1544 1544 1545 1545 1545 1546 1546 1546 1546 1546 1546 1546 1546 1546 1547 1547 1547 1548 1548 1548 1549 1549 1549 1550 1550
1531 1531 1531 1531 1531 1531 1531 1531 1531 1531 1531 1531 1531 1531 1532 1532 1532 1532 1532 1532 1532 1532 1532 1532 1533 1533 1533 1534 1534 1534 1534 1535 1536 1536 1536 1536 1536 1536 1537 1537 1537 1537 1537 1537 1537 1537 1537 1537 1537 1537 1537 1538 1538 1538 1538 1539 1539 1539 1539 1539 1540 1540 1540 1540 1540 1541 1541 1541 1541 1541 1541 1541 1541 1541 1542 1542 1542 1543 1543 1544 1544 1544 1544 1545 1545 1545 1545 1545 1546 1546 1546 1546 1546 1547 1547 1547 1548 1548 1548 1549 1549 1549 1550
1531 1531 1531 1531 1530 1530 1530 1530 1530 1530 1531 1531 1531 1531 1531 1531 1531 1531 1531 1532 1532 1531 1531 1531 1532 1532 1532 1533 1533 1534 1534 1534 1535 1535 1535 1535 1535 1536 1536 1536 1536 1536 1536 1536 1537 1537 1537 1537 1537 1537 1537 1537 1537 1538 1538 1538 1538 1538 1538 1539 1539 1539 1539 1540 1540 1540 1540 1541 1541 1541 1541 1541 1541 1541 1541 1542 1542 1542 1543 1543 1543 1544 1544 1544 1544 1544 1545 1545 1545 1546 1546 1546 1546 1546 1546 1547 1547 1547 1548 1548 1548 1549 1549
1530 1531 1531 1530 1530 1529 1529 1529 1530 1530 1530 1530 1530 1530 1530 1530 1531 1531 1531 1531 1531 1531 1531 1530 1531 1531 1531 1531 1532 1533 1533 1534 1534 1534 1535 1535 1535 1535 1535 1536 1536 1536 1536 1536 1536 1536 1536 1536 1536 1536 1536 1537 1537 1537 1537 1537 1537 1538 1538 1538 1538 1538 1539 1539 1539 1539 1540 1540 1540 1540 1540 1541 1541 1541 1541 1541 1541 1542 1542 1542 1543 1543 1543 1543 1544 1544 1544 1544 1545 1545 1545 1546 1546 1546 1546 1546 1547 1547 1547 1548 1548 1549 1549
1530 1530 1530 1530 1529 1529 1529 1529 1529 1530 1530 1530 1530 1530 1530 1530 1530 1530 1530 1530 1530 1530 1529 1529 1530 1530 1530 1530 1531 1531 1531 1532 1532 1533 1533 1534 1534 1535 1534 1534 1535 1535 1535 1536 1536 1536 1536 1536 1536 1536 1536 1536 1536 1536 1536 1536 1537 1537 1537 1537 1537 1538 1538 1538 1539 1539 1539 1539 1540 1540 1539 1540 1540 1540 1540 1541 1541 1541 1541 1542 1542 1542 1543 1543 1543 1543 1543 1544 1544 1545 1545 1545 1545 1546 1546 1546 1546 1547 1547 1547 1548 1548 1549
1529 1529 1529 1529 1529 1529 1529 1528 1528 1529 1529 1529 1529 1529 1529 1529 1529 1529 1529 1529 1529 1529 1529 1529 1529 1530 1530 1530 1530 1531 1531 1531 1531 1532 1532 1533 1534 1534 1533 1534 1534 1534 1534 1535 1535 1535 1535 1535 1535 1535 1535 1535 1536 1536 1536 1536 1536 1536 1536 1536 1536 1537 1537 1538 1538 1538 1538 1538 1539 1539 1539 1539 1540 1540 1540 1540 1541 1541 1541 1541 1542 1542 1542 1543 1543 1543 1543 1543 1544 1544 1544 1545 1545 1545 1546 1546 1546 1546 1546 1547 1547 1548 1548
1529 1528 1528 1528 1528 1528 1528 1528 1528 1528 1528 1528 1528 1528 1528 1528 1528 1528 1528 1528 1528 1528 1528 1528 1528 1529 1529 1529 1529 1530 1530 1531 1531 1531 1532 1532 1532 1532 1532 1532 1532 1533 1533 1534 1534 1534 1534 1534 1535 1535 1535 1535 1535 1535 1535 1535 1535 1536 1536 1536 1536 1536 1536 1537 1537 1537 1537 1538 1538 1538 1538 1539 1539 1538 1539 1540 1540 1541 1541 1541 1541 1542 1542 1542 1542 1542 1543 1543 1543 1544 1544 1544 1544 1545 1545 1545 1546 1546 1546 1546 1547 1547 1548
1528 1527 1526 1527 1527 1527 1527 1527 1527 1527 1527 1527 1527 1527 1527 1527 1527 1527 1527 1527 1527 1527 1527 1527 1528 1528 1528 1528 1528 1529 1530 1530 1530 1530 1531 1531 1531 1531 1531 1531 1531 1532 1532 1533 1533 1533 1533 1533 1534 1534 1534 1534 1534 1534 1534 1534 1535 1535 1535 1535 1535 1535 1536 1536 1536 1537 1537 1537 1536 1536 1537 1538 1538 1538 1538 1539 1539 1540 1541 1541 1541 1541 1541 1542 1542 1542 1542 1542 1543 1543 1543 1544 1544 1544 1545 1545 1545 1546 1546 1546 1546 1547 1547
1527 1526 1526 1526 1526 1526 1526 1526 1526 1526 1526 1526 1526 1526 1526 1526 1526 1526 1526 1526 1526 1526 1526 1527 1527 1527 1527 1527 1528 1528 1529 1529 1529 1529 1529 1530 1530 1530 1530 1531 1531 1531 1531 1532 1532 1532 1532 1532 1533 1533 1533 1533 1533 1533 1533 1533 1534 1534 1534 1534 1534 1535 1535 1535 1536 1536 1536 1536 1536 1536 1536 1537 1538 1538 1538 1538 1539 1539 1540 1540 1540 1541 1541 1541 1541 1542 1542 1542 1542 1542 1543 1543 1543 1544 1544 1545 1545 1545 1546 1546 1546 1546 1547
1526 1526 1526 1526 1526 1526 1526 1525 1525 1526 1525 1525 1525 1525 1525 1525 1526 1526 1525 1525 1525 1526 1526 1526 1526 1526 1526 1526 1526 1527 1528 1528 1528 1528 1528 1529 1529 1530 1530 1530 1530 1531 1531 1531 1531 1531 1531 1531 1531 1531 1532 1532 1532 1532 1532 1532 1533 1533 1533 1533 1534 1534 1534 1534 1535 1535 1535 1535 1535 1535 1536 1537 1537 1537 1537 1537 1538 1538 1539 1539 1540 1540 1540 1541 1541 1541 1541 1541 1542 1542 1542 1543 1543 1543 1544 1544 1544 1545 1545 1546 1546 1546 1546
1526 1526 1526 1525 1525 1525 1525 1525 1524 1524 1524 1524 1524 1524 1524 1525 1525 1524 1524 1524 1524 1525 1525 1525 1525 1525 1525 1525 1526 1526 1526 1526 1527 1527 1527 1527 1528 1528 1528 1529 1529 1529 1530 1530 1530 1530 1530 1530 1530 1530 1531 1531 1531 1531 1531 1531 1532 1532 1532 1533 1533 1533 1533 1533 1534 1534 1535 1535 1535 1535 1536 1536 1536 1536 1536 1537 1537 1538 1538 1538 1539 1539 1539 1540 1540 1541 1541 1541 1541 1541 1542 1542 1542 1543 1543 1543 1544 1544 1545 1545 1545 1546 1546
1525 1525 1525 1525 1524 1524 1524 1524 1524 1523 1523 1523 1523 1523 1523 1523 1523 1523 1523 1523 1524 1524 1524 1524 1524 1524 1524 1524 1525 1525 1525 1525 1526 1526 1526 1526 1526 1527 1527 1527 1527 1528 1528 1528 1528 1529 1529 1529 1529 1529 1529 1529 1530 1530 1530 1530 1531 1531 1531 1532 1532 1532 1532 1532 1533 1533 1534 1534 1534 1535 1535 1535 1535 1535 1535 1536 1536 1537 1537 1537 1538 1538 1538 1539 1539 1540 1540 1540 1541 1541 1541 1541 1541 1542 1542 1542 1543 1543 1544 1544 1545 1545 1545
1524 1524 1524 1524 1524 1523 1523 1523 1523 1523 1522 1522 1522 1522 1522 1522 1522 1522 1522 1522 1522 1523 1523 1523 1523 1523 1523 1523 1523 1524 1524 1524 1524 1524 1525 1525 1525 1525 1525 1526 1526 1526 1527 1527 1527 1527 1527 1527 1528 1528 1528 1528 1528 1528 1529 1529 1529 1530 1531 1531 1531 1531 1531 1532 1532 1532 1533 1533 1534 1534 1534 1534 1534 1534 1533 1535 1535 1536 1536 1536 1537 1537 1537 1538 1538 1539 1539 1540 1540 1540 1540 1541 1541 1541 1541 1542 1542 1543 1543 1544 1544 1544 1545
1523 1523 1523 1523 1522 1522 1522 1522 1522 1522 1521 1521 1521 1521 1521 1521 1521 1521 1521 1521 1521 1522 1522 1522 1522 1522 1522 1522 1522 1522 1523 1523 1523 1523 1523 1523 1523 1524 1524 1524 1524 1525 1525 1525 1525 1525 1526 1526 1526 1526 1526 1526 1526 1527 1527 1528 1528 1529 1529 1530 1530 1530 1531 1531 1531 1531 1532 1532 1533 1533 1534 1533 1533 1533 1533 1534 1535 1535 1535 1536 1536 1536 1537 1537 1537 1538 1538 1539 1539 1539 1540 1540 1540 1540 1541 1541 1541 1542 1542 1543 1543 1543 1544
1522 1522 1521 1521 1521 1521 1521 1521 1521 1521 1521 1521 1521 1521 1521 1521 1521 1521 1521 1521 1521 1521 1521 1521 1521 1521 1521 1521 1521 1521 1521 1521 1521 1521 1522 1522 1522 1522 1522 1523 1523 1523 1523 1523 1523 1524 1524 1524 1525 1525 1525 1525 1525 1526 1526 1526 1527 1527 1528 1529 1529 1529 1529 1530 1530 1530 1531 1531 1532 1532 1532 1532 1532 1532 1533 1534 1534 1534 1534 1535 1535 1536 1536 1536 1536 1537 1537 1538 1538 1538 1539 1539 1539 1539 1540 1540 1541 1541 1541 1542 1542 1543 1543
1521 1521 1521 1520 1520 1520 1520 1520 1520 1520 1519 1520 1520 1520 1519 1520 1520 1520 1519 1520 1520 1520 1520 1520 1520 1520 1520 1520 1520 1520 1520 1520 1520 1520 1520 1520 1520 1521 1521 1521 1521 1521 1521 1521 1522 1522 1522 1523 1523 1523 1523 1523 1524 1524 1524 1525 1526 1526 1527 1527 1528 1528 1528 1528 1529 1529 1530 1530 1531 1531 1531 1531 1531 1532 1532 1533 1533 1533 1533 1534 1534 1535 1535 1535 1536 1536 1536 1537 1537 1537 1538 1538 1538 1539 1539 1539 1540 1540 1541 1541 1541 1542 1542
1520 1520 1519 1519 1519 1519 1519 1519 1519 1519 1519 1519 1519 1519 1518 1519 1519 1518 1518 1518 1519 1519 1519 1519 1519 1519 1519 1519 1519 1519 1519 1519 1519 1519 1519 1519 1519 1519 1519 1519 1519 1520 1520 1520 1520 1520 1521 1521 1521 1521 1522 1522 1522 1522 1523 1523 1524 1525 1526 1526 1526 1527 1527 1527 1527 1528 1528 1529 1530 1530 1530 1530 1530 1531 1531 1531 1531 1532 1532 1533 1533 1534 1534 1534 1534 1535 1535 1536 1536 1536 1537 1537 1537 1538 1538 1539 1539 1539 1540 1540 1541 1541 1541
1519 1518 1519 1518 1518 1518 1518 1518 1518 1518 1518 1518 1518 1517 1517 1518 1518 1518 1518 1518 1518 1518 1518 1518 1518 1518 1518 1518 1518 1517 1517 1517 1518 1518 1518 1518 1518 1517 1517 1518 1518 1518 1518 1518 1518 1519 1519 1519 1519 1520 1520 1520 1521 1521 1521 1522 1522 1523 1524 1525 1525 1526 1526 1526 1526 1527 1527 1527 1528 1529 1529 1529 1529 1529 1529 1529 1530 1531 1531 1531 1532 1532 1533 1533 1533 1534 1534 1535 1535 1536 1536 1536 1537 1537 1537 1538 1538 1538 1539 1539 1540 1540 1541
1518 1518 1518 1518 1518 1518 1518 1517 1517 1518 1518 1517 1516 1516 1516 1517 1517 1518 1517 1517 1517 1517 1517 1517 1517 1517 1517 1516 1516 1516 1516 1516 1516 1516 1516 1516 1516 1516 1516 1516 1516 1516 1516 1516 1516 1517 1517 1517 1518 1518 1518 1519 1519 1520 1520 1520 1521 1522 1522 1523 1524 1524 1525 1525 1525 1526 1526 1526 1526 1527 1528 1528 1528 1528 1528 1529 1529 1529 1530 1531 1531 1531 1532 1532 1532 1533 1533 1534 1534 1535 1535 1536 1536 1536 1536 1537 1537 1537 1538 1538 1539 1539 1540
1517 1517 1517 1517 1517 1517 1517 1517 1516 1516 1516 1516 1515 1515 1515 1516 1516 1516 1517 1516 1517 1517 1516 1516 1516 1516 1516 1515 1515 1515 1515 1515 1515 1515 1515 1515 1515 1515 1515 1515 1515 1515 1515 1515 1515 1515 1516 1516 1516 1516 1516 1517 1517 1518 1518 1519 1519 1520 1521 1521 1522 1523 1523 1523 1524 1524 1524 1525 1526 1526 1526 1526 1526 1527 1527 1528 1528 1529 1529 1529 1530 1530 1531 1531 1531 1532 1532 1533 1533 1534 1534 1535 1535 1536 1536 1536 1536 1536 1537 1537 1538 1538 1539
1515 1516 1516 1516 1516 1516 1516 1516 1515 1515 1515 1514 1514 1514 1514 1514 1514 1515 1516 1516 1516 1516 1515 1515 1515 1515 1514 1514 1514 1514 1514 1514 1514 1514 1514 1514 1513 1513 1513 1513 1513 1513 1513 1513 1513 1514 1514 1514 1514 1515 1515 1515 1516 1516 1517 1517 1518 1518 1519 1520 1520 1521 1521 1522 1522 1522 1523 1523 1524 1524 1524 1524 1525 1526 1526 1526 1527 1528 1528 1528 1528 1529 1529 1530 1530 1531 1531 1531 1532 1533 1533 1534 1534 1535 1535 1535 1536 1536 1536 1536 1537 1537 1538
1514 1514 1514 1515 1515 1515 1515 1514 1514 1514 1513 1512 1513 1513 1513 1513 1513 1513 1514 1514 1514 1514 1514 1514 1514 1514 1513 1513 1513 1513 1513 1513 1513 1513 1512 1512 1512 1512 1512 1512 1512 1512 1512 1512 1512 1512 1512 1513 1513 1513 1513 1514 1514 1515 1515 1516 1516 1517 1517 1518 1519 1519 1520 1520 1521 1521 1521 1521 1522 1523 1522 1522 1523 1524 1525 1525 1526 1526 1525 1525 1526 1527 1528 1528 1529 1530 1530 1531 1531 1532 1532 1533 1533 1534 1534 1534 1535 1535 1535 1536 1536 1536 1537
1514 1513 1513 1513 1513 1513 1513 1513 1513 1512 1512 1512 1512 1512 1512 1512 1511 1511 1511 1512 1512 1512 1512 1513 1513 1512 1512 1512 1512 1512 1511 1511 1511 1511 1511 1511 1511 1511 1511 1511 1511 1511 1511 1511 1511 1511 1511 1511 1511 1512 1512 1512 1513 1513 1513 1514 1515 1515 1516 1516 1517 1517 1518 1519 1519 1519 1520 1520 1521 1521 1522 1522 1523 1524 1523 1524 1525 1525 1523 1524 1525 1526 1526 1527 1528 1528 1529 1530 1530 1531 1531 1531 1532 1533 1533 1533 1534 1534 1534 1535 1535 1535 1536
1514 1513 1513 1512 1512 1512 1512 1511 1511 1511 1511 1511 1511 1510 1510 1511 1511 1510 1510 1511 1511 1511 1511 1511 1511 1511 1511 1511 1511 1510 1510 1510 1510 1510 1510 1510 1510 1509 1509 1510 1510 1510 1510 1510 1510 1510 1510 1510 1510 1511 1511 1511 1511 1511 1512 1512 1513 1513 1514 1515 1515 1516 1516 1517 1517 1518 1518 1518 1518 1519 1521 1521 1522 1522 1522 1523 1523 1523 1523 1523 1524 1525 1525 1526 1526 1527 1528 1528 1529 1529 1530 1531 1531 1531 1532 1532 1533 1533 1533 1534 1534 1534 1535
1512 1513 1512 1511 1511 1511 1511 1510 1510 1509 1509 1508 1508 1508 1508 1509 1509 1509 1509 1510 1510 1510 1510 1510 1510 1510 1509 1509 1509 1509 1509 1509 1509 1509 1509 1509 1508 1508 1508 1508 1508 1508 1508 1508 1508 1508 1508 1509 1509 1509 1509 1509 1510 1510 1510 1511 1511 1512 1512 1513 1513 1514 1515 1515 1516 1516 1516 1517 1517 1517 1518 1520 1520 1520 1520 1521 1521 1521 1522 1522 1523 1523 1524 1525 1525 1526 1526 1527 1527 1528 1529 1529 1530 1531 1531 1531 1532 1532 1532 1533 1533 1533 1534
1510 1510 1510 1510 1510 1509 1509 1509 1508 1508 1507 1507 1507 1507 1507 1507 1507 1508 1508 1508 1509 1509 1509 1509 1509 1508 1508 1508 1508 1507 1507 1507 1507 1507 1507 1508 1507 1506 1506 1506 1507 1507 1507 1507 1507 1507 1507 1507 1507 1508 1508 1508 1508 1508 1509 1509 1510 1510 1511 1511 1511 1512 1513 1513 1514 1514 1515 1515 1515 1516 1516 1518 1518 1519 1518 1519 1520 1520 1521 1521 1521 1522 1523 1524 1524 1525 1525 1526 1526 1526 1527 1528 1529 1529 1530 1531 1531 1531 1531 1531 1532 1532 1533
1508 1508 1508 1508 1508 1508 1508 1508 1507 1507 1507 1506 1506 1506 1506 1505 1506 1507 1507 1507 1507 1507 1508 1507 1507 1507 1506 1506 1506 1506 1506 1506 1506 1506 1506 1506 1506 1506 1505 1505 1505 1506 1506 1506 1506 1506 1506 1506 1506 1506 1506 1506 1506 1506 1507 1507 1508 1508 1509 1509 1510 1510 1511 1511 1512 1513 1513 1513 1514 1514 1514 1515 1516 1517 1517 1517 1518 1519 1519 1520 1521 1521 1522 1522 1523 1524 1524 1524 1525 1525 1526 1526 1527 1528 1529 1529 1530 1530 1530 1531 1531 1531 1532
1508 1507 1507 1506 1506 1506 1506 1506 1506 1506 1506 1506 1506 1505 1505 1505 1505 1505 1506 1506 1506 1506 1505 1505 1505 1505 1504 1504 1504 1504 1504 1504 1504 1504 1504 1504 1504 1504 1504 1504 1504 1504 1504 1505 1505 1505 1505 1505 1505 1505 1505 1505 1505 1505 1505 1505 1506 1506 1507 1507 1508 1508 1509 1510 1510 1511 1511 1512 1512 1512 1513 1513 1514 1515 1516 1516 1517 1518 1518 1518 1519 1520 1521 1521 1521 1522 1523 1523 1524 1524 1525 1525 1526 1527 1528 1528 1529 1529 1529 1529 1530 1530 1531
1507 1507 1506 1505 1505 1505 1505 1505 1505 1505 1505 1505 1505 1505 1504 1505 1505 1504 1504 1505 1505 1504 1503 1503 1504 1503 1503 1503 1502 1502 1502 1502 1502 1502 1503 1503 1503 1502 1502 1502 1502 1503 1503 1503 1503 1503 1503 1503 1503 1503 1503 1503 1503 1504 1504 1504 1504 1504 1505 1506 1506 1506 1507 1507 1508 1509 1510 1510 1511 1511 1511 1511 1512 1513 1515 1515 1516 1516 1516 1517 1518 1519 1519 1520 1520 1521 1521 1522 1522 1523 1523 1524 1525 1526 1526 1527 1527 1528 1528 1528 1529 1529 1530
1506 1506 1506 1505 1504 1504 1504 1504 1503 1503 1504 1504 1504 1504 1503 1504 1504 1504 1503 1503 1503 1503 1502 1502 1502 1502 1501 1501 1501 1501 1501 1501 1501 1501 1501 1501 1501 1501 1501 1501 1501 1501 1501 1501 1501 1501 1502 1502 1502 1502 1502 1502 1502 1502 1502 1502 1502 1502 1503 1504 1504 1505 1505 1506 1506 1507 1508 1508 1509 1509 1510 1510 1510 1511 1512 1513 1514 1515 1515 1516 1517 1518 1519 1519 1519 1519 1520 1520 1521 1521 1522 1523 1524 1524 1525 1526 1526 1527 1527 1527 1528 1528 1528
1505 1505 1505 1504 1504 1503 1503 1503 1502 1502 1502 1502 1502 1502 1502 1502 1502 1502 1502 1502 1501 1501 1501 1501 1501 1501 1500 1500 1500 1500 1500 1500 1500 1499 1499 1499 1500 1500 1500 1500 1500 1500 1500 1500 1500 1500 1500 1501 1500 1500 1500 1500 1500 1500 1500 1500 1500 1501 1501 1501 1502 1502 1503 1503 1504 1505 1506 1506 1507 1508 1508 1508 1509 1509 1510 1511 1513 1513 1514 1515 1516 1517 1517 1516 1517 1518 1519 1519 1519 1520 1520 1521 1522 1523 1524 1525 1525 1526 1526 1526 1526 1527 1527
1504 1504 1503 1503 1503 1502 1502 1501 1501 1501 1501 1501 1501 1501 1501 1501 1501 1501 1500 1500 1500 1500 1499 1499 1499 1499 1498 1498 1498 1498 1498 1498 1498 1498 1497 1498 1498 1498 1498 1498 1498 1498 1498 1498 1498 1499 1499 1499 1499 1499 1499 1499 1499 1499 1499 1499 1499 1499 1499 1500 1500 1500 1501 1501 1502 1502 1503 1504 1505 1506 1506 1507 1507 1507 1508 1510 1511 1512 1513 1513 1514 1515 1515 1515 1515 1516 1517 1519 1519 1519 1519 1520 1521 1521 1522 1523 1524 1524 1525 1525 1526 1526 1526
1503 1502 1502 1502 1501 1501 1501 1500 1500 1499 1499 1499 1499 1498 1498 1499 1498 1498 1498 1498 1498 1497 1497 1497 1497 1497 1497 1497 1496 1496 1496 1496 1496 1496 1496 1496 1496 1496 1496 1496 1496 1496 1496 1496 1497 1497 1497 1498 1497 1497 1497 1497 1497 1497 1497 1497 1497 1497 1497 1497 1498 1498 1499 1499 1500 1500 1501 1502 1503 1504 1504 1505 1506 1506 1506 1507 1509 1510 1512 1513 1514 1515 1514 1514 1514 1514 1515 1517 1518 1518 1519 1519 1519 1520 1521 1522 1523 1523 1524 1524 1525 1525 1525
1501 1501 1500 1500 1500 1500 1499 1499 1498 1498 1497 1496 1496 1496 1496 1496 1496 1496 1496 1496 1495 1495 1495 1495 1495 1495 1495 1495 1495 1495 1495 1495 1495 1494 1494 1494 1494 1494 1495 1495 1495 1495 1495 1495 1495 1496 1496 1496 1496 1496 1496 1496 1496 1496 1496 1496 1496 1496 1496 1496 1496 1496 1497 1497 1497 1498 1499 1499 1500 1501 1502 1503 1504 1504 1505 1506 1507 1508 1510 1511 1512 1513 1513 1514 1514 1515 1515 1516 1517 1517 1518 1518 1518 1519 1520 1521 1521 1522 1522 1523 1524 1524 1524
1500 1500 1499 1498 1498 1498 1497 1497 1496 1496 1496 1495 1495 1494 1494 1494 1494 1494 1494 1493 1493 1493 1493 1493 1493 1493 1493 1493 1493 1493 1493 1493 1493 1493 1492 1492 1492 1492 1493 1493 1493 1493 1493 1493 1493 1494 1494 1494 1494 1494 1494 1494 1494 1494 1494 1494 1494 1494 1494 1494 1494 1495 1495 1495 1496 1496 1496 1497 1498 1499 1500 1501 1501 1502 1503 1504 1505 1506 1507 1508 1509 1511 1511 1512 1513 1514 1515 1516 1516 1516 1516 1516 1517 1517 1518 1519 1520 1521 1521 1522 1522 1523 1523
1499 1498 1497 1497 1496 1496 1496 1495 1495 1494 1494 1493 1493 1493 1492 1492 1491 1491 1491 1491 1491 1491 1491 1491 1491 1491 1491 1491 1491 1491 1491 1491 1491 1491 1491 1491 1491 1491 1491 1491 1491 1492 1491 1491 1492 1492 1492 1492 1492 1492 1493 1493 1493 1493 1493 1493 1492 1492 1492 1492 1493 1493 1493 1493 1494 1494 1494 1495 1496 1496 1498 1499 1500 1501 1501 1502 1504 1505 1506 1506 1507 1509 1510 1511 1511 1512 1514 1515 1515 1514 1514 1515 1516 1516 1517 1518 1519 1519 1520 1521 1521 1522 1522
1497 1496 1496 1496 1495 1495 1494 1493 1492 1492 1491 1491 1491 1491 1491 1490 1490 1489 1489 1489 1488 1488 1489 1488 1489 1489 1489 1489 1488 1488 1489 1489 1489 1489 1489 1489 1489 1489 1490 1490 1490 1490 1490 1490 1490 1490 1490 1490 1491 1491 1491 1491 1491 1491 1491 1491 1491 1491 1491 1491 1491 1491 1491 1492 1492 1492 1493 1493 1494 1494 1496 1496 1498 1499 1500 1501 1502 1504 1505 1505 1506 1507 1508 1509 1510 1511 1512 1512 1512 1513 1513 1514 1514 1515 1516 1516 1517 1518 1519 1519 1520 1521 1521
1496 1495 1494 1494 1493 1493 1492 1491 1491 1490 1490 1489 1489 1489 1489 1488 1488 1488 1487 1487 1486 1486 1486 1486 1486 1486 1486 1486 1486 1486 1486 1487 1486 1486 1486 1487 1487 1487 1487 1488 1488 1488 1488 1488 1488 1488 1488 1488 1488 1489 1489 1489 1489 1489 1489 1489 1489 1489 1489 1489 1489 1489 1490 1490 1490 1491 1491 1491 1491 1492 1493 1495 1496 1497 1498 1499 1501 1502 1503 1504 1505 1506 1507 1507 1508 1509 1510 1510 1510 1511 1512 1513 1514 1514 1514 1515 1516 1516 1517 1518 1519 1520 1520
1494 1493 1492 1492 1491 1491 1490 1489 1489 1488 1487 1487 1487 1487 1487 1486 1486 1486 1485 1485 1484 1484 1484 1484 1484 1484 1484 1484 1484 1484 1484 1485 1485 1485 1485 1485 1485 1485 1485 1486 1486 1486 1486 1486 1486 1486 1486 1486 1486 1486 1486 1487 1487 1487 1487 1487 1487 1488 1487 1487 1487 1487 1488 1488 1489 1489 1489 1489 1490 1491 1491 1492 1494 1495 1496 1497 1499 1500 1501 1502 1503 1504 1505 1506 1506 1506 1507 1508 1508 1509 1510 1512 1513 1513 1513 1513 1514 1515 1516 1516 1517 1518 1519
1492 1491 1491 1490 1489 1489 1488 1487 1486 1486 1485 1485 1485 1485 1485 1484 1484 1483 1483 1483 1482 1482 1482 1482 1482 1481 1481 1481 1481 1481 1482 1482 1482 1482 1482 1483 1483 1483 1483 1483 1483 1484 1484 1484 1484 1484 1484 1483 1483 1484 1485 1485 1485 1486 1486 1486 1486 1486 1486 1486 1486 1486 1486 1486 1487 1487 1487 1488 1488 1489 1490 1491 1492 1493 1494 1496 1497 1498 1499 1500 1501 1502 1503 1504 1504 1505 1505 1506 1506 1507 1508 1510 1510 1511 1512 1512 1512 1513 1514 1515 1516 1517 1517
1490 1489 1489 1488 1487 1487 1486 1485 1485 1484 1483 1483 1483 1483 1482 1482 1482 1481 1481 1481 1480 1480 1479 1479 1479 1479 1479 1479 1479 1479 1479 1480 1480 1480 1480 1480 1481 1481 1481 1481 1481 1481 1482 1482 1482 1482 1481 1481 1481 1482 1483 1483 1484 1484 1483 1484 1484 1484 1484 1484 1484 1484 1484 1485 1485 1485 1486 1486 1487 1487 1488 1489 1490 1491 1492 1494 1495 1496 1497 1498 1500 1501 1501 1502 1503 1504 1504 1504 1505 1506 1506 1507 1508 1509 1510 1511 1511 1512 1513 1514 1514 1515 1516
1488 1487 1486 1486 1485 1485 1484 1483 1483 1482 1481 1481 1481 1481 1481 1480 1480 1480 1479 1478 1478 1477 1477 1477 1477 1477 1477 1476 1476 1477 1477 1477 1477 1478 1478 1478 1478 1479 1479 1479 1479 1480 1480 1480 1480 1480 1480 1480 1480 1481 1481 1481 1481 1481 1481 1481 1482 1482 1482 1482 1482 1482 1482 1483 1483 1483 1484 1485 1485 1486 1487 1487 1489 1490 1491 1492 1493 1494 1495 1496 1497 1498 1499 1500 1501 1502 1502 1503 1503 1505 1506 1506 1506 1507 1508 1509 1510 1510 1511 1512 1512 1513 1514
1486 1485 1485 1484 1483 1483 1482 1481 1481 1480 1479 1479 1478 1478 1478 1478 1478 1478 1477 1477 1476 1475 1475 1475 1475 1475 1475 1474 1474 1475 1475 1475 1475 1475 1476 1476 1476 1476 1477 1477 1477 1477 1477 1478 1478 1478 1478 1478 1479 1479 1479 1479 1479 1479 1479 1480 1480 1480 1481 1481 1481 1481 1481 1481 1481 1482 1482 1483 1484 1484 1485 1486 1487 1488 1489 1490 1491 1492 1493 1494 1496 1496 1497 1498 1499 1500 1501 1501 1502 1503 1504 1505 1506 1506 1507 1507 1508 1508 1509 1510 1511 1511 1512
1484 1483 1482 1482 1481 1481 1480 1480 1479 1478 1477 1476 1476 1476 1476 1476 1476 1476 1475 1475 1474 1473 1473 1473 1473 1473 1473 1472 1472 1472 1473 1473 1473 1473 1474 1474 1474 1474 1474 1474 1475 1475 1475 1475 1476 1476 1476 1476 1477 1477 1477 1476 1476 1477 1477 1478 1478 1478 1479 1479 1479 1479 1479 1480 1480 1480 1481 1481 1482 1483 1484 1484 1485 1486 1487 1488 1489 1490 1491 1492 1493 1494 1495 1496 1497 1498 1499 1500 1501 1501 1502 1503 1504 1505 1505 1506 1506 1506 1507 1508 1509 1510 1511
1481 1481 1480 1479 1479 1478 1478 1477 1477 1476 1475 1475 1474 1474 1473 1473 1473 1473 1473 1472 1472 1471 1471 1471 1471 1470 1470 1470 1470 1470 1471 1471 1471 1471 1472 1472 1471 1472 1472 1472 1472 1473 1473 1473 1473 1474 1474 1474 1474 1474 1475 1475 1475 1475 1476 1476 1476 1476 1476 1477 1477 1477 1478 1478 1478 1479 1479 1480 1481 1481 1482 1483 1484 1484 1485 1486 1487 1488 1489 1490 1491 1492 1493 1494 1495 1496 1497 1498 1499 1500 1501 1502 1503 1503 1503 1504 1504 1505 1505 1506 1507 1508 1509
1480 1479 1478 1477 1476 1476 1476 1475 1475 1474 1473 1472 1472 1471 1471 1471 1471 1471 1470 1470 1470 1470 1469 1469 1468 1468 1468 1468 1468 1468 1468 1469 1469 1470 1470 1470 1470 1470 1470 1470 1470 1470 1471 1471 1471 1471 1472 1473 1473 1472 1472 1473 1473 1473 1473 1474 1474 1474 1475 1475 1475 1476 1476 1476 1476 1477 1477 1478 1479 1480 1481 1481 1482 1483 1483 1484 1485 1486 1487 1488 1489 1490 1491 1492 1493 1494 1495 1496 1497 1498 1499 1500 1501 1501 1501 1502 1502 1503 1504 1505 1506 1506 1506
1478 1477 1476 1475 1474 1474 1473 1473 1472 1472 1471 1471 1470 1469 1469 1469 1468 1468 1468 1468 1467 1467 1467 1467 1466 1466 1466 1465 1466 1466 1466 1467 1467 1468 1468 1468 1468 1468 1468 1467 1467 1468 1468 1469 1469 1469 1470 1471 1470 1470 1471 1471 1471 1471 1471 1472 1472 1472 1472 1473 1473 1474 1474 1474 1475 1475 1476 1476 1477 1478 1479 1480 1480 1481 1481 1482 1483 1484 1485 1486 1487 1488 1489 1490 1491 1492 1493 1494 1495 1496 1497 1498 1498 1499 1499 1500 1501 1501 1502 1504 1504 1505 1505
1476 1475 1474 1473 1472 1472 1471 1471 1470 1470 1469 1468 1468 1467 1467 1466 1466 1466 1466 1466 1466 1465 1465 1465 1465 1464 1464 1463 1463 1464 1464 1465 1466 1466 1467 1467 1466 1465 1465 1466 1465 1465 1466 1466 1466 1467 1467 1468 1468 1468 1468 1469 1469 1469 1470 1470 1471 1471 1471 1471 1471 1471 1472 1473 1473 1473 1474 1474 1475 1476 1477 1478 1478 1479 1480 1480 1481 1482 1483 1484 1485 1486 1487 1488 1489 1490 1491 1491 1492 1493 1494 1495 1496 1496 1497 1498 1498 1499 1500 1502 1503 1504 1505
1475 1473 1472 1471 1470 1470 1469 1468 1468 1467 1467 1466 1466 1465 1465 1465 1464 1464 1464 1464 1463 1463 1462 1462 1462 1462 1462 1462 1461 1461 1462 1463 1464 1465 1465 1465 1464 1464 1463 1463 1463 1463 1464 1464 1465 1465 1465 1465 1465 1466 1466 1466 1467 1467 1468 1468 1468 1469 1469 1469 1469 1470 1470 1471 1471 1472 1472 1472 1473 1474 1475 1475 1476 1477 1478 1478 1479 1480 1481 1481 1482 1483 1484 1485 1486 1487 1488 1489 1490 1491 1492 1493 1494 1494 1495 1496 1497 1497 1499 1500 1501 1502 1503
1473 1472 1471 1469 1468 1468 1467 1466 1466 1465 1464 1464 1463 1463 1462 1462 1462 1461 1461 1461 1461 1461 1461 1460 1460 1460 1461 1460 1459 1459 1461 1461 1462 1463 1463 1462 1462 1462 1462 1462 1462 1462 1462 1462 1462 1462 1462 1462 1463 1463 1464 1464 1465 1465 1466 1466 1466 1466 1467 1467 1467 1468 1468 1469 1469 1470 1471 1471 1471 1472 1472 1473 1474 1475 1475 1476 1477 1477 1478 1479 1480 1481 1482 1483 1484 1485 1486 1487 1488 1489 1490 1491 1491 1492 1493 1494 1495 1496 1497 1498 1500 1501 1501
1472 1471 1470 1468 1467 1466 1465 1464 1464 1463 1462 1461 1461 1460 1460 1460 1460 1459 1459 1459 1459 1458 1459 1458 1457 1457 1457 1458 1457 1457 1458 1459 1460 1461 1461 1460 1460 1461 1461 1462 1462 1461 1460 1461 1460 1460 1460 1460 1460 1461 1461 1462 1462 1463 1463 1464 1464 1464 1465 1465 1466 1466 1466 1467 1467 1468 1469 1469 1470 1470 1471 1471 1472 1472 1473 1474 1474 1475 1476 1476 1477 1478 1479 1480 1481 1482 1483 1484 1485 1486 1488 1489 1489 1490 1491 1492 1493 1494 1495 1496 1497 1498 1499
1471 1470 1469 1467 1466 1465 1464 1463 1462 1461 1460 1459 1458 1458 1457 1457 1457 1457 1457 1457 1456 1456 1456 1456 1456 1455 1455 1455 1455 1455 1456 1457 1458 1458 1458 1458 1459 1459 1459 1460 1460 1459 1459 1460 1459 1457 1458 1458 1458 1459 1459 1460 1460 1461 1461 1461 1462 1462 1462 1463 1463 1464 1465 1465 1465 1466 1466 1467 1468 1468 1469 1469 1470 1470 1471 1471 1472 1472 1473 1474 1475 1476 1477 1477 1478 1479 1480 1482 1483 1484 1486 1486 1487 1488 1489 1490 1491 1492 1493 1494 1496 1496 1497
1470 1469 1468 1467 1465 1464 1462 1461 1460 1459 1459 1458 1457 1456 1455 1455 1455 1455 1455 1455 1454 1454 1454 1454 1454 1454 1453 1453 1453 1453 1453 1454 1455 1456 1456 1456 1457 1457 1456 1456 1457 1457 1458 1459 1458 1456 1456 1456 1456 1456 1457 1458 1459 1459 1459 1460 1460 1460 1460 1461 1461 1462 1463 1463 1464 1464 1464 1465 1465 1466 1466 1466 1467 1467 1468 1469 1470 1471 1471 1471 1472 1474 1475 1476 1476 1477 1478 1479 1481 1482 1483 1484 1485 1486 1487 1488 1489 1490 1491 1492 1493 1494 1496
1469 1468 1466 1466 1464 1462 1461 1460 1459 1458 1457 1456 1455 1454 1454 1453 1453 1453 1453 1452 1452 1452 1452 1452 1452 1452 1452 1451 1451 1451 1451 1452 1453 1454 1454 1454 1455 1455 1454 1454 1455 1456 1457 1457 1457 1456 1454 1455 1456 1455 1455 1456 1457 1457 1457 1457 1458 1458 1458 1459 1459 1460 1461 1461 1462 1462 1462 1463 1464 1464 1465 1465 1465 1466 1466 1466 1467 1468 1469 1469 1470 1471 1473 1474 1474 1475 1476 1477 1479 1480 1481 1482 1483 1484 1485 1486 1487 1488 1489 1490 1491 1492 1493
1467 1466 1465 1464 1462 1461 1460 1458 1457 1456 1455 1455 1454 1453 1452 1451 1451 1451 1451 1451 1450 1450 1450 1450 1450 1450 1450 1450 1449 1449 1449 1449 1450 1451 1451 1452 1452 1453 1452 1453 1453 1454 1454 1454 1454 1453 1454 1455 1455 1455 1454 1455 1455 1455 1455 1455 1456 1456 1456 1456 1457 1458 1458 1459 1460 1460 1461 1461 1462 1462 1463 1464 1464 1465 1465 1465 1465 1466 1467 1468 1469 1470 1471 1471 1472 1472 1473 1475 1476 1477 1478 1480 1481 1482 1483 1484 1485 1486 1487 1488 1488 1490 1491
1466 1464 1463 1462 1461 1459 1458 1457 1456 1455 1454 1453 1452 1451 1450 1450 1449 1449 1448 1448 1448 1448 1448 1448 1448 1448 1448 1448 1448 1447 1447 1446 1447 1448 1449 1449 1450 1450 1451 1450 1451 1451 1451 1451 1451 1452 1453 1454 1454 1454 1452 1453 1453 1453 1453 1454 1454 1454 1454 1455 1455 1456 1456 1457 1457 1458 1458 1459 1460 1460 1461 1462 1462 1463 1463 1463 1464 1464 1465 1466 1466 1467 1468 1469 1470 1471 1471 1472 1474 1475 1476 1477 1478 1479 1481 1481 1482 1484 1485 1485 1486 1488 1489
1464 1463 1461 1460 1459 1457 1456 1455 1454 1453 1451 1451 1450 1449 1448 1447 1447 1446 1446 1446 1446 1446 1446 1446 1446 1445 1445 1446 1446 1445 1445 1444 1444 1445 1446 1447 1447 1447 1448 1448 1448 1449 1449 1449 1449 1451 1451 1452 1453 1452 1452 1452 1451 1451 1452 1452 1452 1452 1452 1452 1453 1454 1454 1455 1455 1456 1456 1457 1457 1458 1459 1459 1460 1461 1461 1462 1462 1463 1463 1464 1464 1465 1466 1467 1468 1468 1469 1470 1471 1472 1473 1474 1476 1477 1478 1479 1480 1481 1482 1483 1484 1485 1486
1462 1461 1459 1458 1457 1456 1454 1453 1452 1451 1449 1448 1448 1447 1446 1446 1445 1444 1444 1443 1443 1443 1443 1443 1443 1443 1443 1443 1443 1443 1443 1442 1442 1442 1443 1444 1444 1444 1445 1446 1446 1446 1447 1447 1447 1448 1449 1450 1450 1451 1451 1451 1450 1449 1450 1450 1450 1450 1451 1451 1451 1451 1452 1452 1453 1453 1454 1454 1455 1456 1456 1457 1458 1458 1459 1460 1460 1461 1461 1462 1462 1463 1464 1465 1466 1466 1466 1467 1469 1470 1471 1472 1473 1474 1476 1476 1478 1479 1480 1481 1482 1483 1484
1461 1459 1458 1456 1455 1454 1452 1451 1450 1448 1447 1446 1446 1445 1444 1443 1442 1442 1441 1441 1441 1441 1441 1441 1441 1441 1441 1441 1441 1441 1441 1440 1440 1440 1441 1441 1440 1441 1443 1443 1443 1444 1444 1445 1445 1446 1446 1447 1448 1449 1450 1449 1448 1448 1448 1448 1448 1449 1449 1449 1450 1450 1450 1451 1451 1451 1452 1452 1453 1454 1454 1455 1456 1456 1457 1458 1459 1459 1460 1460 1461 1461 1461 1462 1463 1464 1465 1465 1466 1467 1468 1469 1471 1472 1473 1474 1475 1476 1477 1478 1480 1481 1482
1459 1458 1456 1455 1453 1452 1451 1449 1447 1446 1445 1444 1443 1442 1442 1441 1440 1440 1439 1438 1438 1438 1438 1438 1438 1438 1438 1439 1439 1439 1438 1438 1437 1437 1438 1438 1438 1437 1439 1440 1440 1441 1442 1442 1443 1443 1444 1444 1445 1446 1447 1447 1447 1447 1447 1446 1446 1447 1447 1447 1448 1448 1448 1449 1449 1449 1450 1450 1451 1451 1452 1453 1454 1455 1455 1456 1457 1458 1458 1459 1459 1459 1460 1461 1461 1462 1463 1463 1464 1465 1466 1467 1468 1470 1471 1472 1472 1473 1475 1476 1477 1479 1480